sat.trackr.live / text

‹ back to catalog

LATINSAT A

NORAD 27612 · 2002-058H

PAYLOAD ACTIVE UNKNOWN

§ Identity

Operator
Country
ARGN
Launch date
2002-12-20
Launch site
TYMSC
Launch vehicle
Mass (kg)
RCS (m²)
0.03

External: N2YO · Heavens-Above · Gunter

§ Orbital elements

Epoch: 2026-09-19T17:44:31.566336Z

Period
96.93 min
Inclination
64.5556°
Eccentricity
0.0047176
Mean motion
14.85609564 rev/d
Perigee alt
578.7 km
Apogee alt
644.6 km
Semi-major
6,989.8 km
B*
8.7977e-5
RAAN
27.9740°
Arg perigee
233.6294°
Mean anomaly
126.0457°
Rev number
28,167

§ Raw data

LATINSAT A1 27612U 02058H   26262.73925424  .00000623  00000+0  87977-4 0  99992 27612  64.5556  27.9740 0047176 233.6294 126.0457 14.85609564281671

JSON: /api/v1/satellites/27612 · /tle

For live sub-satellite position, see the globe view (requires WebGL).

§ Visibility from observer

Set your observer location to see the next 7 days of passes ≥ 10°. The values pass through the URL so the page stays shareable.

No JS? Fill the form by hand. The geolocation button needs JavaScript.